Regional Weather Roundup
Issued by NWS

Home | Current Version | Previous Version | Text Only | Print | Product List | Glossary Off
Versions: 1 2 3 4 5 6 7 8 9 10 11 12 13 14 15 16 17 18 19 20 21 22 23 24 25 26 27 28 29 30 31 32 33 34 35 36 37 38 39 40 41 42 43 44 45 46 47 48 49 50

739
ASUS45 KTFX 300810
RWRMT
MONTANA REGIONAL WEATHER ROUNDUP
NATIONAL WEATHER SERVICE GREAT FALLS MT
200 AM MDT SAT JUL 30 2016

NOTE: "FAIR" INDICATES FEW OR NO CLOUDS BELOW 12000 FEET WITH NO
SIGNIFICANT WEATHER AND/OR OBSTRUCTIONS TO VISIBILITY.

MTZ001>007-043-300900-
WEST OF THE DIVIDE

CITY           SKY/WX    TMP DP  RH WIND       PRES   REMARKS
KALISPELL      CLEAR     58  54  86 N7        29.82F
MISSOULA       CLEAR     66  49  54 E6        29.88S
BUTTE          CLEAR     60  41  49 CALM      30.04S
MULLAN PASS    CLEAR     69  40  34 SW7       30.04F
DEER LODGE       N/A     57  46  67 CALM      29.99F
EUREKA           N/A     70  52  52 S5        29.79F
HAMILTON         N/A     66  46  48 CALM      29.89F
LIBBY            N/A     64  48  55 SE3       29.81S
RONAN            N/A     59  51  74 MISG      29.90S
$$

MTZ008-052>055-300900-
SOUTHWEST MONTANA

CITY           SKY/WX    TMP DP  RH WIND       PRES   REMARKS
BOZEMAN        CLEAR     66  50  56 W5        29.96F
DILLON         CLEAR     62  40  44 S6        29.99F
W YELLOWSTONE  CLOUDY    48  37  66 CALM      30.13F
ENNIS          CLEAR     57  39  51 NE6       30.05F
THREE FORKS      N/A     59  28  30 CALM      29.95F
TWIN BRIDGES     N/A     65  44  46 SW1       29.98S
$$

MTZ009-010-012-014-046-048-049-054-300900-
EAST SLOPES AND CENTRAL MONTANA

CITY           SKY/WX    TMP DP  RH WIND       PRES   REMARKS
CUT BANK         N/A     62  51  67 S8        29.89F
GREAT FALLS    CLEAR     63  49  60 SE3       29.89F
MALMSTROM AFB  CLEAR     65  51  59 S7        29.89F
HELENA         CLEAR     68  46  45 CALM      29.93R
CHOTEAU          N/A     61  48  63 CALM      29.93F
$$

MTZ011-013-016-021-045-047-050-051-300900-
NORTH CENTRAL MONTANA

CITY           SKY/WX    TMP DP  RH WIND       PRES   REMARKS
HAVRE          CLEAR     64  54  69 CALM      29.86F
N BAR RANCH      N/A     57  48  72 W8        30.03F
CHINOOK          N/A     64  57  77 E6        29.87F
$$

MTZ017>020-022>027-061-062-300900-
NORTHEAST MONTANA

CITY           SKY/WX    TMP DP  RH WIND       PRES   REMARKS
GLASGOW        CLEAR     61  54  77 E8        29.91F
JORDAN           N/A     64  56  75 E3        29.93F
SIDNEY         CLEAR     56  47  71 NW3       29.93F
WOLF POINT     CLEAR     58  54  86 CALM      29.93S
PLENTYWOOD       N/A     61  54  77 E5        29.93F
POPLAR           N/A     59  54  82 CALM      29.93S
$$

MTZ028>42-056>058-300900-
SOUTHCENTRAL AND SOUTHEAST MONTANA

CITY           SKY/WX    TMP DP  RH WIND       PRES   REMARKS
BAKER          CLEAR     60  56  86 CALM      29.97F
BILLINGS       CLEAR     68  50  52 N5        29.94F
LIVINGSTON     CLEAR     67  48  50 SE10      29.99F
MILES CITY     CLEAR     65  53  65 NE6       29.93F
FORSYTH          N/A     66  54  63 CALM      29.91F
LAUREL           N/A     68  48  48 N1        29.94F
ROUNDUP          N/A     65  50  58 CALM      29.88F
$$

REGIONAL REPORTS...DAKOTAS

CITY           SKY/WX    TMP DP  RH WIND       PRES   REMARKS
WILLISTON      CLEAR     61  55  81 CALM      29.93F
MINOT          PTCLDY    67  61  81 S3        29.92F
DICKINSON      CLEAR     58  56  93 CALM      29.92F
BEACH            N/A     55  55 100 CALM      29.98F
CROSBY           N/A     57  57 100 S8        29.94F
WATFORD CITY     N/A    N/A N/A N/A MISG        N/A
BISMARCK       CLOUDY    65  61  87 SE7       29.93F
GRAND FORKS    PTCLDY    62  57  83 SE3       29.96F
FARGO          CLOUDY    69  61  75 S10       29.98F
BUFFALO SD       N/A     66  56  70 SW3       29.90F
RAPID CITY     CLEAR     57  54  89 CALM      29.98F
$$

REGIONAL REPORTS...WYOMING/IDAHO/WASHINGTON

CITY           SKY/WX    TMP DP  RH WIND       PRES   REMARKS
GILLETTE       CLEAR     61  57  87 S7        30.03S
SHERIDAN       CLEAR     61  49  64 CALM      29.98F
BUFFALO WY     MOCLDY    63  49  60 W7        30.05F
CODY           CLEAR     64  48  55 S6        30.05S
YELLOWSTONE LA   N/A     48  41  76 CALM      30.24F
IDAHO FALLS    CLEAR     76  39  26 SW13      29.92S
SALMON         CLEAR     63  43  48 CALM      29.91S
BOISE          CLEAR     77  36  22 SE9       29.82S
SPOKANE        CLEAR     75  44  33 SW8       29.77S
$$

REGIONAL REPORTS...ALBERTA

CITY           SKY/WX    TMP DP  RH WIND       PRES   REMARKS
EDMONTON       RAIN      57  55  94 NE12      29.80F
CALGARY        MOCLDY    61  54  77 S6        29.80F
LETHBRIDGE     CLEAR     59  54  82 S8        29.80F
MEDICINE HAT   CLEAR     63  54  72 E5        29.82F
WATERTON GATE    N/A     55  50  82 S6          N/A
CARDSTON         N/A     64  50  59 E1          N/A
MILK RIVER       N/A     61  52  72 S6          N/A
ONEFOUR          N/A     61  52  72 E12         N/A
$$

REGIONAL REPORTS...SASKATCHEWAN

CITY           SKY/WX    TMP DP  RH WIND       PRES   REMARKS
SWIFT CURRENT  CLEAR     57  55  94 S9        29.89F
REGINA         CLEAR     57  55  94 E6        29.89F
SASKATOON      CLEAR     61  61 100 S6        29.85F
CYPRESS HILLS    N/A     59  52  77 SE7         N/A
VAL MARIE        N/A     54  50  87 NE6         N/A
ROCKGLEN         N/A     59  54  82 S6          N/A
ASSINIBOIA       N/A    N/A N/A N/A W7          N/A
$$




USA.gov is the U.S. government's official web portal to all federal, state and local government web resources and services.